Weather History for KFTY - March, 2013

Change the Weather History Date:

Wednesday, March 13, 2013

  Actual Average Record
Temperature  
Mean Temperature 44 °F 53 °F  
Max Temperature 55 °F 65 °F 80 °F (2003)
Min Temperature 34 °F 41 °F 21 °F (1998)
Degree Days  
Heating Degree Days 20 12  
Month to date heating degree days 182  
Since 1 July heating degree days 2522  
Cooling Degree Days 0 0  
Month to date cooling degree days 0  
Year to date cooling degree days 0  
Moisture  
Dew Point 26 °F    
Average Humidity 50    
Maximum Humidity 92    
Minimum Humidity 25    
Precipitation  
Precipitation 0.00 in 0.15 in 3.05 in (1963)
Month to date precipitation 2.12  
Year to date precipitation 11.29  
Sea Level Pressure  
Sea Level Pressure 30.18 in    
Wind  
Wind Speed 6 mph (WNW)    
Max Wind Speed 18 mph    
Max Gust Speed 29 mph    
Visibility 10 miles    
Events      
T = Trace of Precipitation, MM = Missing Value Source: NWS Daily Summary

Daily Weather History Graph

Daily Weather History Graph

Search for Another Location

Airport or City:

Trip Planner

Search our weather history database for the weather conditions in past years. The results will help you decide how hot, cold, wet, or windy it might be!

Date:

Astronomy

Mar. 13, 2013 Rise Set
Actual Time 7:50 AM EDT 7:44 PM EDT
Civil Twilight 7:25 AM EDT 8:09 PM EDT
Nautical Twilight 6:57 AM EDT 8:38 PM EDT
Astronomical Twilight 6:28 AM EDT 9:07 PM EDT
Moon 8:37 AM EDT (3/13) 9:51 PM EDT (3/13)
Length of Visible Light 12h 43m
Length of Day
11h 53m
Waxing Crescent, 4% of the Moon is Illuminated
Mar 13
Waxing Crescent
Mar 19
First Quarter
Mar 27
Full
Apr 3
Last Quarter
Apr 10
New

Hourly Weather History & Observations

Time (EDT) Temp. Windchill Dew Point Humidity Pressure Visibility Wind Dir Wind Speed Gust Speed Precip Events Conditions
12:53 AM 46.0 °F - 32.0 °F 58% 30.12 in 10.0 mi Calm Calm - N/A   Clear
1:53 AM 43.0 °F - 33.1 °F 68% 30.12 in 10.0 mi Calm Calm - N/A   Clear
2:53 AM 41.0 °F - 33.1 °F 73% 30.13 in 10.0 mi Calm Calm - N/A   Clear
3:53 AM 37.9 °F - 33.1 °F 83% 30.13 in 10.0 mi Calm Calm - N/A   Clear
4:53 AM 36.0 °F - 32.0 °F 86% 30.12 in 10.0 mi Calm Calm - N/A   Clear
5:53 AM 34.0 °F - 32.0 °F 92% 30.13 in 10.0 mi Calm Calm - N/A   Clear
6:53 AM 37.0 °F - 32.0 °F 82% 30.14 in 10.0 mi Calm Calm - N/A   Clear
7:53 AM 37.9 °F 34.4 °F 30.0 °F 73% 30.17 in 10.0 mi West 4.6 mph - N/A   Clear
8:53 AM 39.9 °F - 32.0 °F 73% 30.18 in 10.0 mi Calm Calm - N/A   Clear
9:53 AM 46.9 °F - 28.0 °F 48% 30.19 in 10.0 mi West 10.4 mph 16.1 mph N/A   Clear
10:53 AM 50.0 °F - 28.0 °F 43% 30.19 in 10.0 mi West 10.4 mph 18.4 mph N/A   Clear
11:53 AM 50.0 °F - 23.0 °F 35% 30.21 in 10.0 mi WNW 18.4 mph 26.5 mph N/A   Clear
12:53 PM 52.0 °F - 24.1 °F 34% 30.20 in 10.0 mi West 11.5 mph 19.6 mph N/A   Clear
1:21 PM 53.6 °F - 24.8 °F 33% 30.19 in 10.0 mi NW 13.8 mph 20.7 mph N/A   Clear
1:53 PM 54.0 °F - 21.9 °F 29% 30.18 in 10.0 mi West 17.3 mph 27.6 mph N/A   Clear
2:53 PM 55.0 °F - 21.9 °F 28% 30.16 in 10.0 mi West 18.4 mph 24.2 mph N/A   Clear
3:53 PM 55.0 °F - 21.9 °F 28% 30.16 in 10.0 mi WNW 12.7 mph 26.5 mph N/A   Clear
4:53 PM 54.0 °F - 19.0 °F 25% 30.17 in 10.0 mi WNW 18.4 mph 26.5 mph N/A   Clear
5:53 PM 53.1 °F - 19.0 °F 26% 30.17 in 10.0 mi NW 15.0 mph 20.7 mph N/A   Clear
6:53 PM 51.1 °F - 19.9 °F 29% 30.19 in 10.0 mi West 16.1 mph 28.8 mph N/A   Clear
7:53 PM 48.0 °F - 21.9 °F 36% 30.22 in 10.0 mi WNW 11.5 mph 21.9 mph N/A   Clear
8:53 PM 46.0 °F 41.9 °F 19.9 °F 35% 30.23 in 10.0 mi NW 8.1 mph 18.4 mph N/A   Clear
9:53 PM 44.1 °F 38.1 °F 19.9 °F 38% 30.25 in 10.0 mi NW 11.5 mph 17.3 mph N/A   Clear
10:53 PM 42.1 °F 36.6 °F 19.9 °F 41% 30.25 in 10.0 mi NNW 9.2 mph - N/A   Clear
11:53 PM 39.0 °F 31.4 °F 21.0 °F 49% 30.28 in 10.0 mi NNW 12.7 mph 23.0 mph N/A   Clear